Weather History for KMKN - November, 2013

Change the Weather History Date:

Sunday, November 24, 2013

  Actual Average (KSEP) Record (KSEP)
Temperature  
Mean Temperature 32 °F -  
Max Temperature 35 °F 61 °F 82 °F (2010)
Min Temperature 30 °F 38 °F 19 °F (1950)
Degree Days  
Heating Degree Days 32    
Moisture  
Dew Point 28 °F    
Average Humidity 82    
Maximum Humidity 96    
Minimum Humidity 69    
Precipitation  
Precipitation 0.05 in - - ()
Sea Level Pressure  
Sea Level Pressure 30.45 in    
Wind  
Wind Speed 10 mph (NE)    
Max Wind Speed 15 mph    
Max Gust Speed 22 mph    
Visibility 10 miles    
Events Rain , Thunderstorm    
Averages and records for this station are not official NWS values.
T = Trace of Precipitation, MM = Missing Value Source: NWS Daily Summary

Daily Weather History Graph

Daily Weather History Graph

Search for Another Location

Airport or City:

Trip Planner

Search our weather history database for the weather conditions in past years. The results will help you decide how hot, cold, wet, or windy it might be!

Date:

Astronomy

Nov. 24, 2013 Rise Set
Actual Time 7:11 AM CST 5:31 PM CST
Civil Twilight 6:44 AM CST 5:57 PM CST
Nautical Twilight 6:14 AM CST 6:27 PM CST
Astronomical Twilight 5:45 AM CST 6:56 PM CST
Moon 11:46 PM CST (11/24) 12:09 PM CST (11/24)
Length of Visible Light 11h 12m
Length of Day
10h 19m
Waning Gibbous, 60% of the Moon is Illuminated
Nov 24
Waning Gibbous
Nov 25
Last Quarter
Dec 2
New
Dec 9
First Quarter
Dec 17
Full

Hourly Weather History & Observations

Time (CST) Temp. Windchill Dew Point Humidity Pressure Visibility Wind Dir Wind Speed Gust Speed Precip Events Conditions
12:15 AM 34.9 °F 27.1 °F 26.8 °F 72% 30.52 in 10.0 mi NE 10.4 mph - N/A   Overcast
12:35 AM 34.7 °F 27.5 °F 27.0 °F 73% 30.51 in 10.0 mi NNE 9.2 mph - N/A   Overcast
12:55 AM 34.7 °F 27.5 °F 26.6 °F 72% 30.51 in 10.0 mi NNE 9.2 mph - N/A   Overcast
1:15 AM 34.7 °F 25.1 °F 26.1 °F 71% 30.49 in 10.0 mi NE 15.0 mph - N/A   Overcast
1:35 AM 34.7 °F 26.9 °F 25.7 °F 70% 30.50 in 10.0 mi NNE 10.4 mph - N/A   Overcast
1:55 AM 34.7 °F 27.5 °F 25.5 °F 69% 30.51 in 10.0 mi NNE 9.2 mph - N/A   Overcast
2:15 AM 34.7 °F 27.5 °F 25.7 °F 70% 30.51 in 10.0 mi North 9.2 mph - N/A   Overcast
2:35 AM 34.7 °F 26.4 °F 25.9 °F 70% 30.51 in 10.0 mi North 11.5 mph - N/A   Overcast
2:55 AM 34.9 °F 27.1 °F 25.5 °F 69% 30.51 in 10.0 mi NNE 10.4 mph - N/A   Overcast
3:15 AM 35.1 °F 27.4 °F 25.7 °F 69% 30.52 in 10.0 mi North 10.4 mph - N/A   Overcast
3:35 AM 34.9 °F 27.1 °F 26.1 °F 70% 30.52 in 10.0 mi North 10.4 mph - N/A   Overcast
3:55 AM 34.3 °F 24.6 °F 26.4 °F 73% 30.52 in 10.0 mi North 15.0 mph - N/A   Overcast
4:15 AM 34.2 °F 25.2 °F 26.2 °F 73% 30.52 in 10.0 mi North 12.7 mph - N/A   Overcast
4:35 AM 34.2 °F 25.2 °F 26.4 °F 73% 30.53 in 10.0 mi North 12.7 mph - N/A   Overcast
4:55 AM 34.2 °F 26.2 °F 26.4 °F 73% 30.53 in 10.0 mi North 10.4 mph - N/A   Overcast
5:15 AM 34.3 °F 27.0 °F 25.7 °F 71% 30.53 in 10.0 mi North 9.2 mph 17.3 mph N/A   Overcast
5:35 AM 34.3 °F 25.5 °F 25.9 °F 71% 30.51 in 10.0 mi NNE 12.7 mph - N/A   Overcast
5:55 AM 34.2 °F 25.2 °F 25.9 °F 72% 30.52 in 10.0 mi North 12.7 mph 18.4 mph N/A   Overcast
6:15 AM 33.8 °F 24.3 °F 27.0 °F 76% 30.53 in 10.0 mi North 13.8 mph 19.6 mph N/A Rain Light Rain
6:35 AM 33.3 °F 23.2 °F 27.3 °F 79% 30.52 in 10.0 mi NNE 15.0 mph 21.9 mph N/A Rain Light Rain
6:55 AM 32.9 °F 23.2 °F 27.5 °F 81% 30.52 in 10.0 mi NNE 13.8 mph 19.6 mph N/A   Overcast
7:15 AM 32.9 °F 24.1 °F 28.0 °F 82% 30.53 in 10.0 mi North 11.5 mph - N/A   Overcast
7:35 AM 32.9 °F 23.2 °F 27.9 °F 82% 30.52 in 10.0 mi NNE 13.8 mph - N/A Rain Light Rain
7:55 AM 32.5 °F 24.8 °F 28.6 °F 85% 30.52 in 10.0 mi NNE 9.2 mph - N/A   Light Drizzle
8:15 AM 32.5 °F 23.2 °F 28.0 °F 83% 30.52 in 10.0 mi NNE 12.7 mph 18.4 mph N/A Rain Light Rain
8:35 AM 32.4 °F 22.5 °F 27.9 °F 83% 30.52 in 10.0 mi NE 13.8 mph 17.3 mph N/A   Overcast
8:55 AM 32.2 °F 22.7 °F 28.4 °F 86% 30.51 in 10.0 mi NNE 12.7 mph - N/A Rain Light Rain
9:15 AM 32.0 °F 22.5 °F 29.3 °F 90% 30.53 in 10.0 mi NNE 12.7 mph - N/A Rain Light Rain
9:35 AM 32.0 °F 24.8 °F 30.0 °F 92% 30.53 in 10.0 mi NNE 8.1 mph - N/A   Drizzle
9:55 AM 32.2 °F 23.8 °F 30.0 °F 92% 30.52 in 10.0 mi NNE 10.4 mph 17.3 mph N/A Rain Light Rain
10:15 AM 32.2 °F 25.0 °F 30.6 °F 94% 30.53 in 10.0 mi NNE 8.1 mph - N/A Rain Light Rain
10:35 AM 32.2 °F 23.8 °F 30.2 °F 92% 30.53 in 10.0 mi NNE 10.4 mph - N/A   Overcast
10:55 AM 32.0 °F 22.5 °F 29.8 °F 92% 30.52 in 10.0 mi NE 12.7 mph - N/A   Overcast
11:15 AM 31.8 °F 22.3 °F 28.2 °F 87% 30.52 in 10.0 mi NNE 12.7 mph 16.1 mph N/A   Overcast
11:35 AM 32.0 °F 23.6 °F 28.6 °F 87% 30.50 in 10.0 mi NE 10.4 mph - N/A   Overcast
11:55 AM 32.0 °F 23.6 °F 28.4 °F 87% 30.48 in 10.0 mi NE 10.4 mph - N/A   Overcast
12:15 PM 32.4 °F 24.0 °F 27.9 °F 83% 30.47 in 10.0 mi NE 10.4 mph - N/A   Overcast
12:35 PM 32.2 °F 24.4 °F 27.1 °F 82% 30.45 in 10.0 mi ENE 9.2 mph - N/A   Overcast
12:55 PM 32.9 °F 26.7 °F 27.5 °F 81% 30.45 in 10.0 mi NE 6.9 mph - N/A   Overcast
1:15 PM 33.1 °F 26.1 °F 27.0 °F 78% 30.44 in 10.0 mi NE 8.1 mph - N/A   Overcast
1:35 PM 33.6 °F 28.4 °F 27.3 °F 78% 30.43 in 10.0 mi NE 5.8 mph - N/A   Overcast
1:55 PM 33.6 °F 28.4 °F 27.5 °F 78% 30.42 in 10.0 mi NNE 5.8 mph - N/A   Overcast
2:15 PM 33.8 °F 27.7 °F 27.9 °F 79% 30.41 in 10.0 mi NE 6.9 mph - N/A   Overcast
2:35 PM 33.4 °F 26.6 °F 27.5 °F 79% 30.40 in 10.0 mi North 8.1 mph - N/A   Drizzle
2:55 PM 33.4 °F 25.9 °F 29.1 °F 84% 30.39 in 10.0 mi NNE 9.2 mph - N/A Rain Rain
3:15 PM 33.4 °F 25.9 °F 29.5 °F 85% 30.38 in 10.0 mi NNE 9.2 mph - N/A   Overcast
3:35 PM 33.3 °F 26.4 °F 29.1 °F 85% 30.36 in 10.0 mi NE 8.1 mph - N/A   Overcast
3:55 PM 33.1 °F 26.9 °F 28.6 °F 84% 30.39 in 10.0 mi NNE 6.9 mph - N/A   Overcast
4:15 PM 32.9 °F 26.7 °F 28.9 °F 85% 30.38 in 10.0 mi North 6.9 mph - N/A   Overcast
4:35 PM 33.1 °F 28.7 °F 29.1 °F 85% 30.40 in 10.0 mi NNE 4.6 mph - N/A   Drizzle
4:55 PM 32.9 °F 27.5 °F 28.8 °F 85% 30.39 in 10.0 mi NNE 5.8 mph - N/A   Overcast
5:15 PM 32.5 °F 26.2 °F 28.4 °F 85% 30.38 in 10.0 mi NE 6.9 mph - N/A   Overcast
5:35 PM 32.4 °F 26.0 °F 29.1 °F 88% 30.38 in 10.0 mi NNE 6.9 mph - N/A   Overcast
5:55 PM 32.4 °F 26.9 °F 29.1 °F 88% 30.37 in 10.0 mi NNE 5.8 mph - N/A   Overcast
6:15 PM 32.4 °F 25.3 °F 29.3 °F 88% 30.37 in 10.0 mi NNE 8.1 mph - N/A   Overcast
6:35 PM 32.4 °F 25.3 °F 29.3 °F 88% 30.37 in 10.0 mi NNE 8.1 mph - N/A   Overcast
6:55 PM 32.2 °F 26.7 °F 29.3 °F 89% 30.36 in 10.0 mi NE 5.8 mph - N/A   Overcast
7:15 PM 32.0 °F 26.4 °F 27.9 °F 85% 30.35 in 10.0 mi NE 5.8 mph - N/A   Overcast
7:35 PM 32.0 °F 24.8 °F 28.4 °F 87% 30.34 in 10.0 mi ENE 8.1 mph - N/A   Overcast
7:55 PM 32.0 °F 28.7 °F 27.9 °F 85% 30.35 in 10.0 mi East 3.5 mph - N/A   Overcast
8:15 PM 32.0 °F 26.4 °F 27.3 °F 83% 30.35 in 10.0 mi East 5.8 mph - N/A   Overcast
8:35 PM 32.0 °F 27.5 °F 27.3 °F 83% 30.36 in 10.0 mi East 4.6 mph - N/A   Overcast
8:55 PM 32.0 °F 27.5 °F 27.3 °F 83% 30.35 in 10.0 mi ENE 4.6 mph - N/A   Overcast
9:15 PM 32.0 °F 27.5 °F 27.5 °F 83% 30.34 in 10.0 mi East 4.6 mph - N/A   Overcast
9:35 PM 32.0 °F - 27.9 °F 85% 30.35 in 10.0 mi Calm Calm - N/A   Overcast
9:55 PM 31.6 °F 27.0 °F 27.7 °F 85% 30.34 in 10.0 mi NE 4.6 mph - N/A   Overcast
10:15 PM 31.3 °F 26.6 °F 28.2 °F 88% 30.34 in 10.0 mi East 4.6 mph - N/A   Overcast
10:35 PM 31.1 °F 25.4 °F 28.8 °F 91% 30.34 in 10.0 mi East 5.8 mph - N/A   Overcast
10:55 PM 31.1 °F 27.7 °F 28.4 °F 90% 30.33 in 10.0 mi East 3.5 mph - N/A   Overcast
11:15 PM 31.1 °F 25.4 °F 29.5 °F 94% 30.32 in 7.0 mi ESE 5.8 mph - 0.02 in Rain Light Freezing Rain
11:35 PM 30.7 °F 24.9 °F 29.3 °F 94% 30.30 in 10.0 mi East 5.8 mph - 0.02 in Rain , Thunderstorm Light Freezing Rain
11:55 PM 30.9 °F 27.5 °F 29.8 °F 96% 30.31 in 2.0 mi SSE 3.5 mph - 0.05 in Rain Light Freezing Rain